Mt. Pocono, PA

9:52 PM EST on December 13, 2019 (GMT -0500)
Pocono Mountains Municipal

Weather History for KMPO - October, 2019

Change the Weather History Date:

Friday, October 25, 2019

  Actual Average Record
Temperature  
Mean Temperature 48 °F 46 °F  
Max Temperature 59 °F 55 °F 75 °F (1963)
Min Temperature 36 °F 37 °F 16 °F (1933)
Degree Days  
Heating Degree Days 18 19  
Month to date heating degree days 362 399  
Since 1 July heating degree days 540 667  
Cooling Degree Days 0 0  
Month to date cooling degree days 5 0  
Year to date cooling degree days 348 313  
Moisture  
Dew Point 40 °F    
Average Humidity 73    
Maximum Humidity 100    
Minimum Humidity 49    
Precipitation  
Precipitation 0.00 in 0.11 in 1.72 in (1958)
Month to date precipitation 4.51 3.44  
Year to date precipitation 40.73 39.78  
Sea Level Pressure  
Sea Level Pressure 30.26 in    
Wind  
Wind Speed 4 mph ()    
Max Wind Speed 14 mph    
Max Gust Speed 17 mph    
Visibility 10.0 miles    
Events      
T = Trace of Precipitation, MM = Missing Value Source: Averaged Metar Reports

Daily Weather History Graph

Daily Weather History Graph

Search for Another Location

Airport or City:

Astronomy

Oct. 25, 2019 Rise Set
Actual Time 7:24 AM EDT 6:06 PM EDT
Civil Twilight 6:55 AM EDT 6:34 PM EDT
Nautical Twilight 6:23 AM EDT 7:06 PM EDT
Astronomical Twilight 5:51 AM EDT 7:38 PM EDT
Moon 4:01 AM EDT (10/25) 5:09 PM EDT (10/25)
Length of Visible Light 11h 38m
Length of Day
10h 42m
Waning Crescent, 9% of the Moon is Illuminated
Oct 25
Waning Crescent
Oct 27
New
Nov 4
First Quarter
Nov 12
Full
Nov 19
Last Quarter

Hourly Weather History & Observations

Time (EDT) Temp. Windchill Dew Point Humidity Pressure Visibility Wind Dir Wind Speed Gust Speed Precip Events Conditions
12:53 AM 46.9 °F - 36.0 °F 66% 30.30 in 10.0 mi West 6.9 mph - N/A   Clear
1:53 AM 46.9 °F - 37.0 °F 68% 30.30 in 10.0 mi West 4.6 mph - N/A   Clear
2:53 AM 45.0 °F 41.8 °F 37.9 °F 76% 30.30 in 10.0 mi West 5.8 mph - N/A   Clear
3:53 AM 42.1 °F 39.2 °F 39.0 °F 89% 30.30 in 10.0 mi WNW 4.6 mph - N/A   Clear
4:53 AM 41.0 °F 38.0 °F 37.9 °F 89% 30.30 in 10.0 mi WNW 4.6 mph - N/A   Clear
5:53 AM 37.0 °F - 36.0 °F 96% 30.31 in 10.0 mi Calm Calm - N/A   Clear
6:53 AM 37.9 °F - 37.0 °F 97% 30.31 in 10.0 mi Calm Calm - N/A   Clear
7:53 AM 37.9 °F - 37.0 °F 97% 30.32 in 10.0 mi Calm Calm - N/A   Clear
8:53 AM 44.1 °F - 43.0 °F 96% 30.32 in 10.0 mi Calm Calm - N/A   Clear
9:53 AM 52.0 °F - 45.0 °F 77% 30.31 in 10.0 mi Calm Calm - N/A   Clear
10:53 AM 53.1 °F - 44.1 °F 71% 30.30 in 10.0 mi ESE 4.6 mph - N/A   Clear
11:53 AM 55.0 °F - 43.0 °F 64% 30.28 in 10.0 mi SE 4.6 mph - N/A   Clear
12:53 PM 57.9 °F - 39.9 °F 51% 30.26 in 10.0 mi SW 9.2 mph - N/A   Clear
1:53 PM 57.9 °F - 39.0 °F 49% 30.22 in 10.0 mi South 11.5 mph - N/A   Partly Cloudy
2:53 PM 57.9 °F - 39.0 °F 49% 30.21 in 10.0 mi SW 9.2 mph - N/A   Partly Cloudy
3:53 PM 57.0 °F - 39.9 °F 53% 30.20 in 10.0 mi South 11.5 mph - N/A   Mostly Cloudy
4:53 PM 57.0 °F - 41.0 °F 55% 30.20 in 10.0 mi South 8.1 mph - N/A   Mostly Cloudy
5:53 PM 55.0 °F - 41.0 °F 59% 30.20 in 10.0 mi SSW 4.6 mph - N/A   Partly Cloudy
6:53 PM 53.1 °F - 41.0 °F 64% 30.21 in 10.0 mi Calm Calm - N/A   Clear
7:53 PM 51.1 °F - 42.1 °F 71% 30.20 in 10.0 mi WSW 5.8 mph - N/A   Clear
8:53 PM 50.0 °F - 43.0 °F 77% 30.20 in 10.0 mi WNW 4.6 mph - N/A   Scattered Clouds
9:53 PM 50.0 °F - 43.0 °F 77% 30.20 in 10.0 mi West 4.6 mph - N/A   Mostly Cloudy
10:53 PM 50.0 °F - 43.0 °F 77% 30.20 in 10.0 mi West 6.9 mph - N/A   Partly Cloudy
11:53 PM 48.9 °F - 41.0 °F 74% 30.20 in 10.0 mi WNW 6.9 mph - N/A   Clear